This is the latest recevied weather packets stored in our database for station/object PA0HHN. If no packets are shown the sender has not sent any weather packets the latest 10 day(s).
| Time | Temp. | Humidity | Pressure | Rain* | Wind** | Luminosity | Snow |
|---|---|---|---|---|---|---|---|
| 1788552002 | 16.11° C | 86% | 1005.8 hPa | - | - | - | - |
| 1788551102 | 16.11° C | 85% | 1005.7 hPa | - | - | - | - |
| 1788550202 | 16.11° C | 85% | 1005.6 hPa | - | - | - | - |
| 1788549302 | 17.22° C | 84% | 1005.6 hPa | - | - | - | - |
| 1788548400 | 17.22° C | 84% | 1005.3 hPa | - | - | - | - |
| 1788547503 | 17.22° C | 83% | 1005 hPa | - | - | - | - |
| 1788546602 | 17.22° C | 82% | 1004.8 hPa | - | - | - | - |
| 1788545701 | 17.22° C | 81% | 1004.8 hPa | - | - | - | - |
| 1788544802 | 17.22° C | 79% | 1004.3 hPa | - | - | - | - |
| 1788543900 | 17.78° C | 81% | 1004.3 hPa | - | - | - | - |
| 1788543002 | 17.78° C | 85% | 1003.8 hPa | - | - | - | - |
| 1788542102 | 17.78° C | 86% | 1003.8 hPa | - | - | - | - |
| 1788541201 | 17.78° C | 86% | 1004 hPa | - | - | - | - |
| 1788540302 | 17.78° C | 87% | 1003.6 hPa | - | - | - | - |
| 1788539401 | 17.78° C | 86% | 1003.4 hPa | - | - | - | - |
| 1788538502 | 17.78° C | 87% | 1003.3 hPa | - | - | - | - |
| 1788537603 | 17.78° C | 87% | 1003.1 hPa | - | - | - | - |
| 1788536700 | 17.78° C | 91% | 1003.1 hPa | - | - | - | - |
| 1788535801 | 17.78° C | 94% | 1003 hPa | - | - | - | - |
| 1788534901 | 18.89° C | 93% | 1002.8 hPa | - | - | - | - |
| 1788534002 | 17.78° C | 94% | 1002.6 hPa | - | - | - | - |
| 1788533102 | 17.78° C | 96% | 1002.5 hPa | - | - | - | - |
| 1788532202 | 17.78° C | 99% | 1002.3 hPa | - | - | - | - |
| 1788531302 | 17.22° C | 99% | 1002.1 hPa | - | - | - | - |
| 1788530402 | 17.22° C | 99% | 1001.7 hPa | - | - | - | - |
* Rain since midnight (hover to see other rain measurements)
** Current wind speed in m/s (hover to see current wind gust speed)